Flag for Canada Weather past 2 weeks in Arviat, Nunavut, Canada

Now
48 °F

Fog.


Feels Like: 44 °F
Forecast: 45 / 50 °F
Wind: 10 mph from East

Location: Arviat Airport

Current Time: Sep 3, 2015 at 11:13:56 AM

Latest Report: Sep 3, 2015 at 10:00 AM


Visibility: 0 mi

Pressure: 29.84 "Hg

Humidity: 100%

Dew point: 48 °F

Location of ArviatLocation

Historic Weather in Arviat — Graph

°F

Arviat temperature yesterday

Maximum temperature yesterday: 48 °F (at 8:00 AM)
Minimum temperature yesterday: 46 °F (at 12:00 AM)
Average temperature yesterday: 47 °F

Past Weeks' High & Low Weather Summary

 TemperatureHumidityPressure
High59 °F (Aug 27, 3:00 PM)100% (Aug 22, 4:00 AM)30.14 "Hg (Aug 22, 4:00 AM)
Low39 °F (Aug 27, 3:00 AM)59% (Aug 27, 1:00 PM)29.70 "Hg (Aug 31, 7:00 PM)
Average48 °F89%29.89 "Hg
* Reported Aug 19 9:00 AM — Sep 3 9:50 AM, Arviat, Weather by CustomWeather, © 2015

Note: Actual official high and low records may vary slightly from our data, if they occured in-between our weather recording intervals... More about our weather records

Advertising

Arviat weather history for previous 24 hours

 ConditionsComfort  
Time TempWeatherWind HumidityBarometerVisibility
9:50 AM
Thu, Sep 3
48 °FFog.8 mph100%29.83 "Hg1 mi
9:00 AM48 °FFog.8 mph100%29.83 "Hg1 mi
8:52 AM48 °FFog.7 mph100%29.83 "Hg1 mi
8:00 AM48 °FLow clouds.8 mph100%29.82 "Hg7 mi
7:00 AM48 °FMostly cloudy.12 mph100%29.80 "Hg10 mi
6:00 AM48 °FLow clouds.8 mph100%29.80 "Hg9 mi
5:00 AM46 °FFog.10 mph100%29.80 "Hg3 mi
4:00 AM46 °FFog.6 mph100%29.80 "Hg1 mi
3:00 AM46 °FFog.8 mph100%29.80 "Hg1 mi
2:00 AM46 °FFog.9 mph100%29.80 "Hg1 mi
1:00 AM46 °FFog.9 mph100%29.81 "Hg1 mi
12:00 AM46 °FLight rain. Fog.12 mph100%29.82 "Hg0 mi
11:00 PM
Wed, Sep 2
48 °FMostly cloudy.13 mph100%29.81 "Hg7 mi
10:00 PM48 °FMostly cloudy.15 mph100%29.81 "Hg8 mi
9:00 PM48 °FMostly cloudy.17 mph100%29.81 "Hg8 mi
8:00 PM48 °FFog.16 mph100%29.83 "Hg5 mi
7:00 PM46 °FLight rain. Fog.18 mph100%29.83 "Hg3 mi
6:00 PM46 °FLight rain. Fog.22 mph100%29.82 "Hg2 mi
5:52 PM48 °FLight rain. Fog.23 mph100%29.81 "Hg1 mi
5:00 PM48 °FFog.22 mph100%29.83 "Hg3 mi
4:00 PM48 °FDrizzle. Fog.20 mph94%29.84 "Hg1 mi
3:51 PM48 °FFog.18 mph94%29.85 "Hg1 mi
3:00 PM48 °FFog.23 mph94%29.84 "Hg5 mi
2:00 PM48 °FLow clouds.18 mph94%29.86 "Hg10 mi
1:00 PM48 °FLow clouds.21 mph94%29.87 "Hg10 mi
12:00 PM48 °FFog.16 mph94%29.88 "Hg6 mi
11:00 AM48 °FMostly cloudy.17 mph94%29.88 "Hg10 mi
Weather by CustomWeather, © 2015

See weather overviewHow to use our weather pages